Flag for Isle of Man Weather past 2 weeks in Douglas, Isle of Man

Now
63 °F

Scattered showers. Scattered clouds.


Feels Like: 63 °F
Forecast: 59 / 63 °F
Wind: 12 mph from Southwest

Location: Isle Of Man / Ronaldsway Airport

Current Time: Jul 31, 2014 at 4:05:08 PM

Latest Report: Jul 31, 2014 at 3:20 PM


Visibility: N/A

Pressure: 29.83 "Hg

Humidity: 88%

Dew point: 59 °F

Location of DouglasLocation

Historic Weather in Douglas — Graph

°F

Douglas temperature yesterday

Maximum temperature yesterday: 64 °F (at 11:20 AM)
Minimum temperature yesterday: 59 °F (at 12:50 AM)
Average temperature yesterday: 61 °F

Past Weeks' High & Low Weather Summary

 TemperatureHumidityPressure
High79 °F (Jul 24, 4:20 PM)100% (Jul 16, 11:50 PM)30.27 "Hg (Jul 16, 11:50 PM)
Low54 °F (Jul 17, 1:50 AM)34% (Jul 25, 4:20 PM)29.74 "Hg (Jul 19, 1:50 PM)
Average64 °F80%30.02 "Hg
* Reported Jul 16 2:20 PM — Jul 31 2:50 PM, Douglas, Weather by CustomWeather, © 2014

Note: Actual official high and low records may vary slightly from our data, if they occured in-between our weather recording intervals... More about our weather records

Advertising

Douglas weather history for previous 24 hours

 ConditionsComfort  
Time TempWeatherWind HumidityBarometerVisibility
2:50 PM
Jul 31
63 °FSprinkles. Scattered clouds.13 mph83%29.83 "HgN/A
2:20 PM63 °FPassing clouds.14 mph83%29.83 "HgN/A
1:50 PM64 °FPassing clouds.14 mph78%29.83 "HgN/A
1:20 PM64 °FPassing clouds.14 mph78%29.86 "HgN/A
12:50 PM64 °FPassing clouds.15 mph73%29.86 "HgN/A
12:20 PM64 °FPassing clouds.10 mph78%29.86 "HgN/A
11:50 AM64 °FPassing clouds.13 mph78%29.86 "HgN/A
11:20 AM64 °FPassing clouds.15 mph78%29.86 "HgN/A
10:50 AM64 °FPassing clouds.14 mph78%29.86 "HgN/A
10:20 AM61 °FPassing clouds.15 mph83%29.86 "HgN/A
9:50 AM63 °FPassing clouds.15 mph83%29.86 "HgN/A
9:20 AM63 °FPassing clouds.14 mph83%29.86 "HgN/A
8:50 AM63 °FPassing clouds.12 mph83%29.86 "HgN/A
8:20 AM61 °FScattered clouds.14 mph88%29.86 "HgN/A
7:50 AM61 °FPassing clouds.13 mph88%29.86 "HgN/A
7:20 AM59 °FPassing clouds.8 mph94%29.86 "HgN/A
6:50 AM59 °FPassing clouds.10 mph94%29.86 "HgN/A
6:20 AM59 °FPassing clouds.12 mph94%29.86 "HgN/A
5:50 AM59 °FPassing clouds.7 mph94%29.86 "HgN/A
5:20 AM61 °FPassing clouds.6 mph88%29.86 "HgN/A
4:50 AM59 °FPassing clouds.7 mph94%29.86 "HgN/A
3:50 AM59 °FPassing clouds.6 mph94%29.86 "HgN/A
2:50 AM59 °FPassing clouds.3 mph94%29.89 "HgN/A
1:50 AM61 °FPassing clouds.6 mph88%29.89 "HgN/A
12:50 AM61 °FLight rain. Partly cloudy.12 mph94%29.89 "HgN/A
11:50 PM
Jul 30
61 °FPartly cloudy.10 mph94%29.89 "HgN/A
10:50 PM61 °FLight rain. Passing clouds.10 mph94%29.92 "HgN/A
9:50 PM61 °FPartly sunny.14 mph88%29.92 "HgN/A
8:50 PM61 °FPassing clouds.10 mph88%29.92 "HgN/A
8:20 PM61 °FPartly sunny.9 mph88%29.92 "HgN/A
7:50 PM61 °FPassing clouds.12 mph88%29.92 "HgN/A
7:20 PM63 °FPassing clouds.13 mph83%29.92 "HgN/A
6:50 PM63 °FPassing clouds.14 mph83%29.92 "HgN/A
6:20 PM63 °FPassing clouds.15 mph83%29.92 "HgN/A
5:50 PM64 °FPassing clouds.17 mph78%29.92 "HgN/A
5:20 PM64 °FPassing clouds.12 mph78%29.95 "HgN/A
4:50 PM64 °FPartly sunny.14 mph78%29.95 "HgN/A
4:20 PM63 °FPartly sunny.15 mph83%29.95 "HgN/A
Weather by CustomWeather, © 2014

See weather overviewHow to use our weather pages